DAL5006 KRDU-KDCA

Flight info

Callsign DAL5006
Flight time 0h 38m
Altitude 17000
Route RDU T398 BOUSY RIC IRONS7
Aircraft B722/M-SDFGHRWY/C

Departure

Time 2026-05-08 02:23
Airport Raleigh-Durham International Airport (KRDU)

Arrival

Time 2026-05-08 03:02
Airport Ronald Reagan Washington National Airport (KDCA)
Time Latitude Longitude Altitude Speed Heading
2026-05-08 01:43 35.87904 -78.79241 393 ft 0 kts 136°
2026-05-08 02:11 35.87912 -78.79252 395 ft 2 kts 135°
2026-05-08 02:11 35.87924 -78.79266 394 ft 2 kts 134°
2026-05-08 02:11 35.87937 -78.79278 395 ft 2 kts 159°
2026-05-08 02:12 35.87953 -78.79276 395 ft 2 kts 210°
2026-05-08 02:12 35.87961 -78.79267 393 ft 0 kts 223°
2026-05-08 02:17 35.87957 -78.79272 395 ft 3 kts 223°
2026-05-08 02:17 35.87930 -78.79304 395 ft 8 kts 223°
2026-05-08 02:17 35.87881 -78.79362 392 ft 11 kts 225°
2026-05-08 02:17 35.87818 -78.79440 394 ft 14 kts 225°
2026-05-08 02:18 35.87743 -78.79534 392 ft 15 kts 226°
2026-05-08 02:18 35.87670 -78.79628 392 ft 17 kts 226°
2026-05-08 02:18 35.87585 -78.79733 390 ft 18 kts 225°
2026-05-08 02:18 35.87490 -78.79849 394 ft 20 kts 224°
2026-05-08 02:19 35.87399 -78.79955 393 ft 11 kts 224°
2026-05-08 02:19 35.87354 -78.80039 391 ft 12 kts 281°
2026-05-08 02:19 35.87410 -78.80129 394 ft 14 kts 315°
2026-05-08 02:19 35.87496 -78.80137 394 ft 15 kts 41°
2026-05-08 02:20 35.87570 -78.80045 395 ft 0 kts 45°
2026-05-08 02:23 35.87668 -78.79921 394 ft 54 kts 45°
2026-05-08 02:23 35.88101 -78.79387 395 ft 120 kts 45°
2026-05-08 02:23 35.88797 -78.78535 628 ft 152 kts 44°
2026-05-08 02:23 35.89584 -78.77583 1205 ft 160 kts 43°
2026-05-08 02:24 35.90322 -78.76695 2261 ft 136 kts 39°
2026-05-08 02:24 35.91014 -78.75895 2813 ft 149 kts 33°
2026-05-08 02:24 35.91952 -78.75130 3138 ft 162 kts 22°
2026-05-08 02:24 35.92923 -78.74730 4213 ft 135 kts
2026-05-08 02:25 35.93841 -78.74350 4667 ft 154 kts 12°
2026-05-08 02:25 35.94951 -78.73872 4869 ft 183 kts 13°
2026-05-08 02:25 35.96292 -78.73326 5106 ft 224 kts 13°
2026-05-08 02:25 35.97909 -78.72702 5388 ft 260 kts 13°
2026-05-08 02:26 35.99661 -78.72038 5976 ft 268 kts 12°
2026-05-08 02:26 36.01463 -78.71351 6933 ft 276 kts 11°
2026-05-08 02:26 36.03325 -78.70641 7808 ft 284 kts 11°
2026-05-08 02:26 36.05237 -78.69916 8562 ft 290 kts 11°
2026-05-08 02:27 36.07190 -78.69180 9263 ft 299 kts 10°
2026-05-08 02:27 36.09189 -78.68428 10197 ft 302 kts
2026-05-08 02:27 36.11213 -78.67671 11016 ft 306 kts
2026-05-08 02:27 36.13273 -78.66909 11818 ft 311 kts
2026-05-08 02:28 36.15356 -78.66147 12637 ft 314 kts
2026-05-08 02:28 36.17472 -78.65379 13435 ft 320 kts
2026-05-08 02:28 36.19620 -78.64606 14182 ft 323 kts
2026-05-08 02:28 36.21788 -78.63828 14953 ft 326 kts
2026-05-08 02:29 36.23982 -78.63047 15651 ft 330 kts
2026-05-08 02:29 36.26198 -78.62256 16357 ft 334 kts
2026-05-08 02:29 36.28405 -78.61187 16935 ft 350 kts 15°
2026-05-08 02:29 36.30672 -78.59744 16948 ft 380 kts 19°
2026-05-08 02:30 36.33090 -78.58179 16953 ft 404 kts 19°
2026-05-08 02:30 36.35669 -78.56549 16954 ft 428 kts 19°
2026-05-08 02:30 36.38404 -78.54851 16945 ft 450 kts 19°
2026-05-08 02:30 36.41277 -78.53096 16947 ft 470 kts 19°
2026-05-08 02:31 36.44267 -78.51293 16966 ft 487 kts 19°
2026-05-08 02:31 36.47371 -78.49444 16947 ft 502 kts 19°
2026-05-08 02:31 36.50562 -78.47557 16951 ft 508 kts 19°
2026-05-08 02:31 36.53715 -78.45712 16971 ft 493 kts 19°
2026-05-08 02:32 36.56802 -78.43949 16966 ft 485 kts 19°
2026-05-08 02:32 36.59850 -78.42207 16969 ft 479 kts 19°
2026-05-08 02:32 36.62857 -78.40483 16968 ft 474 kts 19°
2026-05-08 02:32 36.65838 -78.38773 16972 ft 470 kts 19°
2026-05-08 02:33 36.68760 -78.37093 16988 ft 468 kts 19°
2026-05-08 02:33 36.71730 -78.35326 16977 ft 469 kts 22°
2026-05-08 02:33 36.74476 -78.33099 16974 ft 473 kts 32°
2026-05-08 02:33 36.76995 -78.30448 16975 ft 476 kts 39°
2026-05-08 02:34 36.79283 -78.27524 16979 ft 477 kts 44°
2026-05-08 02:34 36.81472 -78.24414 17011 ft 477 kts 45°
2026-05-08 02:34 36.83631 -78.21272 17014 ft 476 kts 45°
2026-05-08 02:34 36.85841 -78.18131 17012 ft 474 kts 44°
2026-05-08 02:35 36.88061 -78.15094 17013 ft 473 kts 43°
2026-05-08 02:35 36.90316 -78.12098 16977 ft 473 kts 42°
2026-05-08 02:35 36.92558 -78.09162 16975 ft 473 kts 42°
2026-05-08 02:35 36.94832 -78.06189 16974 ft 473 kts 42°
2026-05-08 02:36 36.97106 -78.03218 16977 ft 473 kts 42°
2026-05-08 02:36 36.99375 -78.00251 16977 ft 473 kts 42°
2026-05-08 02:36 37.01652 -77.97277 16977 ft 473 kts 42°
2026-05-08 02:36 37.03926 -77.94305 16976 ft 472 kts 42°
2026-05-08 02:37 37.06197 -77.91338 16983 ft 471 kts 42°
2026-05-08 02:37 37.08464 -77.88379 16984 ft 471 kts 42°
2026-05-08 02:37 37.10732 -77.85422 16976 ft 472 kts 42°
2026-05-08 02:37 37.13002 -77.82461 16980 ft 472 kts 41°
2026-05-08 02:38 37.15284 -77.79485 16988 ft 472 kts 41°
2026-05-08 02:38 37.17560 -77.76519 17000 ft 472 kts 41°
2026-05-08 02:38 37.19840 -77.73547 17003 ft 473 kts 41°
2026-05-08 02:38 37.22121 -77.70576 17002 ft 473 kts 41°
2026-05-08 02:39 37.24403 -77.67603 17009 ft 473 kts 41°
2026-05-08 02:39 37.26682 -77.64635 16992 ft 473 kts 41°
2026-05-08 02:39 37.28970 -77.61655 17007 ft 473 kts 41°
2026-05-08 02:39 37.31254 -77.58680 16988 ft 474 kts 42°
2026-05-08 02:40 37.33543 -77.55698 16989 ft 474 kts 42°
2026-05-08 02:40 37.35875 -77.52789 16982 ft 470 kts 36°
2026-05-08 02:40 37.38513 -77.50423 16983 ft 462 kts 25°
2026-05-08 02:40 37.41324 -77.48520 16985 ft 458 kts 19°
2026-05-08 02:41 37.44200 -77.46803 16993 ft 457 kts 19°
2026-05-08 02:41 37.47072 -77.45098 16994 ft 457 kts 19°
2026-05-08 02:41 37.49943 -77.43393 16984 ft 457 kts 19°
2026-05-08 02:41 37.52826 -77.41680 16999 ft 458 kts 18°
2026-05-08 02:42 37.55708 -77.39968 16988 ft 459 kts 18°
2026-05-08 02:42 37.58595 -77.38252 16986 ft 459 kts 18°
2026-05-08 02:42 37.61483 -77.36536 17007 ft 459 kts 18°
2026-05-08 02:42 37.64378 -77.34817 17007 ft 459 kts 18°
2026-05-08 02:43 37.67269 -77.33099 17006 ft 460 kts 18°
2026-05-08 02:43 37.70161 -77.31382 17004 ft 460 kts 18°
2026-05-08 02:43 37.73055 -77.29666 17008 ft 460 kts 18°
2026-05-08 02:43 37.75958 -77.27968 17005 ft 460 kts 18°
2026-05-08 02:44 37.78872 -77.26339 16998 ft 455 kts 13°
2026-05-08 02:44 37.81844 -77.25275 16995 ft 446 kts
2026-05-08 02:44 37.84882 -77.24646 17036 ft 440 kts 360°
2026-05-08 02:44 37.87915 -77.24102 17037 ft 441 kts
2026-05-08 02:45 37.90954 -77.23532 17042 ft 441 kts
2026-05-08 02:45 37.93990 -77.22963 17043 ft 441 kts
2026-05-08 02:45 37.97030 -77.22394 17038 ft 442 kts
2026-05-08 02:45 38.00073 -77.21825 17033 ft 442 kts
2026-05-08 02:46 38.03120 -77.21253 17015 ft 442 kts
2026-05-08 02:46 38.06112 -77.20635 16846 ft 426 kts
2026-05-08 02:46 38.08981 -77.20040 16599 ft 411 kts
2026-05-08 02:46 38.11743 -77.19446 16310 ft 394 kts
2026-05-08 02:47 38.14398 -77.18875 15986 ft 381 kts
2026-05-08 02:47 38.16967 -77.18318 15665 ft 369 kts
2026-05-08 02:47 38.19466 -77.17793 15378 ft 359 kts 359°
2026-05-08 02:47 38.21901 -77.17338 15065 ft 350 kts 359°
2026-05-08 02:48 38.24301 -77.16888 14643 ft 347 kts 359°
2026-05-08 02:48 38.26678 -77.16410 14230 ft 345 kts
2026-05-08 02:48 38.29036 -77.15915 13829 ft 342 kts
2026-05-08 02:48 38.31377 -77.15422 13384 ft 339 kts
2026-05-08 02:49 38.33696 -77.14941 12944 ft 337 kts
2026-05-08 02:49 38.35992 -77.14452 12504 ft 334 kts
2026-05-08 02:49 38.38280 -77.13964 12056 ft 332 kts
2026-05-08 02:49 38.40550 -77.13479 11581 ft 330 kts
2026-05-08 02:50 38.42811 -77.13014 11135 ft 328 kts
2026-05-08 02:50 38.45058 -77.12545 10674 ft 326 kts
2026-05-08 02:50 38.47287 -77.12079 10220 ft 323 kts
2026-05-08 02:50 38.49485 -77.11615 9818 ft 316 kts
2026-05-08 02:51 38.51611 -77.11170 9419 ft 302 kts
2026-05-08 02:51 38.53614 -77.10753 9012 ft 292 kts
2026-05-08 02:51 38.55603 -77.10341 8604 ft 288 kts
2026-05-08 02:51 38.57559 -77.09925 8251 ft 282 kts
2026-05-08 02:52 38.59476 -77.09527 7898 ft 276 kts
2026-05-08 02:52 38.61357 -77.09135 7573 ft 272 kts
2026-05-08 02:52 38.63210 -77.08747 7241 ft 268 kts
2026-05-08 02:52 38.65038 -77.08363 6932 ft 264 kts
2026-05-08 02:53 38.66838 -77.07989 6698 ft 261 kts
2026-05-08 02:53 38.68621 -77.07663 6431 ft 257 kts 359°
2026-05-08 02:53 38.70331 -77.08139 6219 ft 255 kts 327°
2026-05-08 02:53 38.71669 -77.09633 6126 ft 255 kts 311°
2026-05-08 02:54 38.72798 -77.11369 6018 ft 253 kts 309°
2026-05-08 02:54 38.73908 -77.13108 5902 ft 251 kts 309°
2026-05-08 02:54 38.75012 -77.14839 5774 ft 251 kts 309°
2026-05-08 02:54 38.76112 -77.16565 5643 ft 250 kts 309°
2026-05-08 02:55 38.77253 -77.18240 5517 ft 249 kts 315°
2026-05-08 02:55 38.79901 -77.21081 5364 ft 248 kts 320°
2026-05-08 02:55 38.81230 -77.22481 5286 ft 247 kts 320°
2026-05-08 02:56 38.82554 -77.23875 5201 ft 246 kts 320°
2026-05-08 02:56 38.83875 -77.25267 5126 ft 246 kts 320°
2026-05-08 02:56 38.85195 -77.26656 5051 ft 245 kts 320°
2026-05-08 02:56 38.86653 -77.27772 4924 ft 246 kts 340°
2026-05-08 02:57 38.88325 -77.28181 4780 ft 244 kts 353°
2026-05-08 02:57 38.90015 -77.28047 4612 ft 245 kts
2026-05-08 02:57 38.91598 -77.27243 4454 ft 245 kts 22°
2026-05-08 02:57 38.92996 -77.25987 4255 ft 249 kts 39°
2026-05-08 02:58 38.94068 -77.24216 4009 ft 254 kts 54°
2026-05-08 02:58 38.94850 -77.22182 3869 ft 252 kts 63°
2026-05-08 02:58 38.95486 -77.20087 3727 ft 253 kts 67°
2026-05-08 02:58 38.95977 -77.17892 3455 ft 258 kts 76°
2026-05-08 02:59 38.96147 -77.15587 3235 ft 260 kts 88°
2026-05-08 02:59 38.95724 -77.13365 3036 ft 257 kts 122°
2026-05-08 02:59 38.94401 -77.11860 2278 ft 257 kts 157°
2026-05-08 02:59 38.92826 -77.11009 1848 ft 226 kts 161°
2026-05-08 03:00 38.91509 -77.10203 1366 ft 197 kts 150°
2026-05-08 03:00 38.90615 -77.08993 1151 ft 190 kts 119°
2026-05-08 03:00 38.90214 -77.07356 908 ft 183 kts 109°
2026-05-08 03:00 38.89637 -77.06034 699 ft 162 kts 141°
2026-05-08 03:01 38.88728 -77.05255 494 ft 151 kts 153°
2026-05-08 03:01 38.87879 -77.04502 453 ft 148 kts 145°
2026-05-08 03:01 38.86991 -77.03986 228 ft 136 kts 172°
2026-05-08 03:01 38.86076 -77.03863 51 ft 128 kts 178°
2026-05-08 03:02 38.85273 -77.03794 26 ft 102 kts 177°
2026-05-08 03:02 38.84884 -77.03750 27 ft 59 kts 176°
2026-05-08 03:02 38.84685 -77.03797 28 ft 9 kts 217°
2026-05-08 03:02 38.84690 -77.03853 28 ft 9 kts 319°
2026-05-08 03:03 38.84775 -77.03878 27 ft 16 kts 355°
2026-05-08 03:03 38.84899 -77.03945 27 ft 15 kts 332°
2026-05-08 03:03 38.85011 -77.03964 27 ft 18 kts 356°
2026-05-08 03:03 38.85101 -77.03972 27 ft 20 kts 355°
2026-05-08 03:04 38.85248 -77.03988 27 ft 20 kts 354°
2026-05-08 03:04 38.85346 -77.04003 27 ft 1 kts 339°
2026-05-08 03:04 38.85359 -77.04014 27 ft 5 kts 315°
2026-05-08 03:04 38.85381 -77.04055 27 ft 2 kts 302°
2026-05-08 03:05 38.85386 -77.04066 27 ft 1 kts 302°